Location: Unspecified
(53.3900°N, 0.0000°E)
Time: 07:07:24
(UTC+00:00)

deb GEOSAT 1 - Visible Passes

Search period start: 04 April 2026 00:00
Search period end: 14 April 2026 00:00
Orbit: 690 x 745 km, 107.8° (Epoch: 28 March)

Date Brightness Start Highest point End Pass type
(mag) Time Alt. Az. Time Alt. Az. Time Alt. Az.
4 Apr ? 19:15:40 10° SW 19:17:49 13° WSW 19:19:58 10° WNW visible
11 Apr ? 19:52:02 10° WSW 19:53:43 12° W 19:55:25 10° W visible
13 Apr ? 19:47:14 10° SW 19:49:55 15° WSW 19:52:36 10° WNW visible
